Flag for Brazil Weather past 2 weeks in Maceió, Alagoas, Brazil

Now
79 °F

Scattered clouds.


Feels Like: 81 °F
Forecast: 71 / 80 °F
Wind: 13 mph from South

Location: Maceio Aeroporto

Current Time: Aug 20, 2014 at 1:48:42 PM

Latest Report: Aug 20, 2014 at 1:00 PM


Visibility: N/A

Pressure: 30.07 "Hg

Humidity: 65%

Dew point: 66 °F

Location of MaceióLocation

Historic Weather in Maceió — Graph

°F

Maceió temperature yesterday

Maximum temperature yesterday: 79 °F (at 12:00 PM)
Minimum temperature yesterday: 64 °F (at 3:00 AM)
Average temperature yesterday: 71 °F

Past Weeks' High & Low Weather Summary

 TemperatureHumidityPressure
High82 °F (Aug 13, 1:00 PM)100% (Aug 5, 11:00 PM)30.15 "Hg (Aug 5, 11:00 PM)
Low32 °F (Aug 6, 5:00 PM)45% (Aug 14, 2:00 PM)29.62 "Hg (Aug 18, 12:00 AM)
Average71 °F83%30.07 "Hg
* Reported Aug 5 12:00 Noon — Aug 20 12:00 Noon, Maceió, Weather by CustomWeather, © 2014

Note: Actual official high and low records may vary slightly from our data, if they occured in-between our weather recording intervals... More about our weather records

Advertising

Maceió weather history for previous 24 hours

 ConditionsComfort  
Time TempWeatherWind HumidityBarometerVisibility
12:00 PM
Aug 20
79 °FPartly sunny.12 mph61%30.09 "HgN/A
11:00 AM79 °FScattered clouds.12 mph65%30.09 "HgN/A
10:00 AM77 °FScattered clouds.5 mph74%30.09 "HgN/A
9:00 AM72 °FScattered clouds.1 mph88%30.09 "HgN/A
8:00 AM70 °FScattered clouds.3 mph94%30.07 "HgN/A
7:00 AM66 °FScattered clouds.3 mph100%30.07 "HgN/A
6:00 AM66 °FScattered clouds.3 mph100%30.04 "HgN/A
5:00 AM66 °FPassing clouds.6 mph100%30.04 "HgN/A
4:00 AM66 °FPassing clouds.3 mph100%30.04 "HgN/A
3:00 AM68 °FPassing clouds.5 mph94%30.04 "HgN/A
2:00 AM68 °FPassing clouds.3 mph94%30.04 "HgN/A
1:00 AM68 °FPassing clouds.2 mph94%30.07 "HgN/A
12:00 AM70 °FPassing clouds.3 mph94%30.09 "HgN/A
11:00 PM
Aug 19
68 °FPassing clouds.1 mph94%30.09 "HgN/A
10:00 PM68 °FPassing clouds.2 mph94%30.07 "HgN/A
9:00 PM70 °FPassing clouds.1 mph88%30.07 "HgN/A
8:00 PM72 °FPassing clouds.3 mph88%30.07 "HgN/A
7:00 PM73 °FPassing clouds.6 mph78%30.04 "HgN/A
6:00 PM75 °FPassing clouds.10 mph74%30.01 "HgN/A
5:00 PM77 °FScattered clouds.12 mph69%30.01 "HgN/A
4:00 PM77 °FScattered clouds.14 mph69%30.01 "HgN/A
3:00 PM79 °FPartly sunny.13 mph65%30.01 "HgN/A
2:00 PM79 °FScattered clouds.10 mph61%30.01 "HgN/A
1:00 PM79 °FScattered clouds.12 mph61%30.04 "HgN/A
Weather by CustomWeather, © 2014

See weather overviewHow to use our weather pages